CAPE
0 0 3 22 13 1 35 57 84 318 154 11 0 0 0 42 83 94 239 168 182 152 188 154 158 220 211 515 169 221 335 706 977 895 413 936 942 870 691 767 1000 1226 1421 1878
0 0 2 8 8 0 17 60 97 327 171 205 78 0 0 37 77 23 46 129 52 169 184 154 197 237 377 565 557 462 778 1221 1473 902 624 968 707 865 813 826 1232 1216 1385 2021
0 0 0 12 0 0 13 49 68 106 295 150 133 69 14 3 26 37 27 110 157 219 205 207 208 277 290 440 591 722 972 1382 1229 1286 1280 1435 936 1338 760 1094 1221 672 1026 1494
0 0 0 0 0 0 5 2 11 41 222 111 220 48 130 71 17 5 17 71 127 182 250 239 253 311 301 454 583 745 981 1198 1187 1318 1052 723 628 267 320 515 986 1065 1029 1208
0 0 0 0 0 0 25 55 46 93 64 117 366 161 163 124 95 24 0 72 175 129 161 179 283 275 266 474 540 527 902 1166 1186 1118 1005 916 897 775 382 818 1035 1312 1306 1278
0 0 0 0 0 0 0 29 23 42 63 72 140 190 155 92 59 57 32 134 105 50 178 105 181 320 325 406 495 489 741 1046 1248 1064 1036 1145 854 502 372 525 1028 594 949 1012
0 0 0 0 0 0 0 45 61 52 45 75 142 144 133 197 43 40 60 100 95 168 116 175 254 364 364 397 486 492 876 1044 990 913 810 909 1100 1236 1128 872 453 740 659 506
0 0 0 0 0 0 0 39 70 33 14 120 44 127 193 73 111 20 1 16 80 114 97 53 138 496 435 470 500 628 942 1138 1021 763 840 897 995 671 512 562 521 440 473 575
0 0 0 0 0 0 10 0 55 32 48 76 182 128 223 266 143 136 19 21 16 80 131 76 221 331 415 534 571 577 961 1159 1047 708 927 963 1078 945 781 730 850 670 756 523
0 2 0 0 0 0 7 53 87 60 35 113 78 111 201 292 403 470 192 180 51 47 187 94 207 385 654 347 618 678 812 1209 1028 838 888 1017 984 836 835 959 1402 1153 1059 886
0 0 2 0 0 4 0 0 46 138 53 71 170 195 319 254 425 535 307 206 63 51 176 265 233 268 658 420 652 715 849 1067 1169 921 841 997 874 923 923 801 810 877 1151 1147
0 6 44 2 3 0 41 47 19 53 88 62 83 84 1 23 406 577 402 265 78 71 233 220 171 327 493 636 808 861 907 920 1034 1013 1027 1010 1011 1014 1017 900 873 1054 1095 1046
30 0 12 25 0 31 48 161 136 75 0 11 9 62 0 0 383 747 556 192 201 177 56 80 205 501 584 864 1092 1230 1286 1090 927 1072 979 957 1077 1151 1097 1012 1020 1076 1103 1155
0 7 0 0 4 0 60 141 30 23 12 0 3 16 0 0 299 511 447 695 477 62 1 5 417 442 691 587 1227 1202 1192 1181 1437 1079 1087 1124 1168 1180 1067 1086 1218 996 1143 1114
11 88 146 45 0 0 0 91 7 246 1 16 0 148 25 9 373 385 734 1004 510 600 322 28 139 746 508 267 291 216 258 486 641 1014 828 1126 992 1077 1349 1323 1160 1070 1452 1350
64 30 10 8 4 1 432 293 2 0 123 12 22 774 1063 756 641 279 414 460 682 771 485 685 770 680 606 722 202 131 103 82 201 188 410 919 1256 754 592 725 707 996 1084 1103
66 41 70 132 6 9 33 38 4 0 0 270 178 484 814 675 387 355 322 152 213 330 450 599 656 645 568 473 626 484 245 236 159 217 99 116 409 346 233 221 200 140 112 330
82 65 104 106 0 0 349 29 0 0 0 385 1416 970 921 623 380 302 302 191 145 220 210 201 207 370 699 798 636 684 600 550 827 1050 698 777 403 271 538 278 156 144 180 99
58 154 53 126 148 51 228 145 90 0 2 131 1259 1282 802 610 517 392 329 408 327 281 313 290 242 197 237 319 576 467 465 745 768 687 504 522 565 527 496 453 195 123 41 12
58 82 0 47 145 261 144 70 223 101 38 126 1182 1023 893 986 809 786 547 487 413 313 291 279 301 312 396 436 250 193 180 135 74 96 197 189 158 54 15 1 1 1 1 1
62 27 0 3 2 6 0 6 38 59 147 0 945 1086 1057 1113 1076 644 591 451 421 347 271 245 182 150 208 244 144 66 29 11 3 2 28 44 65 26 4 5 4 1 1 0
109 143 66 1 1 24 38 9 312 399 526 465 1288 1138 1041 1026 647 607 439 360 306 304 245 234 79 33 25 32 59 16 0 5 3 2 1 2 2 2 5 4 3 3 4 2
0 3 4 11 198 274 206 667 398 397 344 919 1342 1076 1056 893 747 571 435 304 189 162 170 178 126 83 34 26 65 5 4 3 0 2 4 5 4 2 2 2 0 0 0 0
0 0 0 0 0 4 163 276 164 151 407 499 868 969 878 823 493 474 551 381 237 98 86 194 115 68 25 6 2 3 4 3 3 3 2 2 2 2 0 0 0 0 0 4
75 32 0 0 8 19 26 55 46 37 54 89 705 800 776 751 534 509 460 395 332 198 103 97 140 80 16 8 3 0 0 0 0 0 0 0 0 0 0 0 0 0 0 0
0 0 0 6 21 16 0 0 4 6 0 26 275 574 658 670 526 393 368 387 345 283 168 165 133 76 30 13 4 2 1 0 0 0 0 0 0 0 0 0 0 0 0 0
CIN
0 0 -3 -2 -4 -25 -4 -2 -4 -19 -47 -43 0 0 -0 -42 -36 -39 -20 -2 -4 -6 -2 -3 -5 -4 -4 -2 -24 -17 -4 -1 -2 -2 -2 -3 -1 -3 -2 -2 -4 -7 -2 -5
0 0 -2 -13 -8 0 -1 -6 -29 -2 -26 -3 -3 0 -0 -83 -85 -63 -61 -33 -36 -9 -4 -2 -2 -2 -2 -3 -2 -4 -1 -4 -3 -2 -1 -2 -0 -1 -2 -1 -0 -2 -2 -0
0 0 0 -6 0 0 -3 -3 -14 -7 -7 -17 -1 -2 -37 -31 -42 -43 -88 -12 -5 -2 -5 -5 -9 -3 -3 -3 -3 -2 -1 -2 -1 -2 -2 -6 -1 -3 -2 -2 -1 -9 -8 -0
0 0 0 0 0 0 -5 -5 -7 -3 -2 -5 -5 -2 -1 -12 -24 -3 -53 -33 -15 -24 -25 -4 -1 -3 -3 -3 -3 -1 -3 -1 -1 -1 -4 -5 -2 -2 -3 -2 -2 -3 -1 -1
0 0 0 0 0 -2 -2 -7 -2 -15 -1 -2 -18 -2 -2 -13 -2 -39 -5 -18 -15 -10 -5 -64 -2 -3 -4 -2 -2 -2 -1 -2 -1 -0 -6 -4 -7 -7 -2 -3 -11 -4 -6 -2
0 0 0 0 0 0 0 -1 -3 -4 -6 -5 -6 -4 -1 -4 -2 -33 -35 -16 -20 -58 -6 -48 -52 -10 -2 -3 -2 -2 -2 -1 -1 -1 -1 -9 -4 -16 -3 -3 -6 -2 -2 -6
0 0 0 0 0 0 0 -3 -6 -4 -5 -6 -2 -2 -4 -1 -18 -40 -31 -1 -21 -4 -2 -4 -28 -10 -4 -2 -3 -1 -1 -1 -1 -1 -1 -8 -9 -2 -4 -3 -2 -4 -6 -3
0 0 0 0 0 0 0 -4 -12 -15 -83 -13 -68 -3 -9 -38 -7 -91 -116 -68 -59 -40 -11 -85 -17 -10 -6 -1 -1 -3 -7 -1 -1 -1 -1 -1 -0 -2 -2 -7 -5 -6 -17 -15
0 0 0 0 0 0 -7 0 -8 -15 -4 -6 -5 -18 -11 -12 -22 -4 -22 -24 -84 -26 -20 -18 -26 -15 -2 -1 -2 -2 -5 -1 -1 -2 -1 -2 -0 -9 -2 -4 -8 -2 -3 -4
-3 -4 0 0 0 0 -7 -37 -14 -28 -24 -31 -5 -63 -10 -2 -6 -2 -3 -17 -38 -25 -6 -32 -7 -3 -17 -10 -2 -2 -1 -1 -2 -1 -2 -2 -2 -4 -10 -1 -4 -7 -3 -2
0 0 -13 0 0 -2 0 0 -115 -6 -39 -13 -15 -3 -1 -34 -26 -8 -5 -26 -53 -32 -5 -19 -10 -12 -10 -8 -3 -2 -2 -2 -1 -1 -1 -2 -2 -1 -1 -1 -1 -1 -0 -5
0 -6 -10 -19 -48 0 -7 -6 -5 -18 -37 -34 -25 -58 -6 -15 -8 -20 -9 -10 -49 -39 -13 -43 -28 -23 -0 -3 -5 -3 -1 -1 -2 -2 -1 -1 -1 -0 -1 -1 -0 -1 -0 -1
-9 -2 -15 -70 0 -9 -11 -8 -25 -111 -11 -86 -77 -14 0 0 -2 -5 -9 -18 -14 -33 -90 -81 -47 -14 -12 -7 -6 -1 -3 -1 -2 -2 -2 -2 -2 -2 -3 -1 -0 -0 -1 -1
0 -7 -4 -2 -70 0 -91 -14 -40 -152 -14 0 -88 -14 0 0 -3 -13 -42 -20 -10 -61 -86 -22 -33 -13 -17 -27 -3 -23 -17 -10 -10 -3 -2 -2 -2 -1 -2 -0 -0 -1 -3 -1
-6 -6 -14 -51 0 0 0 -27 -27 -28 -3 -45 0 -3 -29 -23 -53 -40 -16 -2 -8 -4 -15 -101 -56 -3 -24 -31 -64 -78 -73 -68 -35 -20 -12 -5 -8 -6 -1 -2 -2 -1 -0 -1
-7 -22 -35 -78 -74 -0 -11 -1 -75 0 -63 -95 -91 -2 -47 -97 -92 -98 -97 -68 -12 -1 -2 -1 -1 -15 -42 -34 -55 -43 -57 -136 -135 -27 -5 -14 -2 -16 -21 -11 -18 -7 -0 -0
-3 -7 -5 -3 -61 -23 -14 -52 -152 0 0 -38 -6 -6 -89 -128 -174 -172 -140 -134 -105 -39 -29 -7 -10 -5 -12 -4 -4 -26 -96 -69 -24 -4 -39 -91 -25 -17 -28 -31 -31 -54 -61 -36
-4 -12 -7 -70 0 0 -3 -128 0 0 0 -32 -10 -71 -52 -138 -190 -204 -176 -174 -137 -129 -97 -115 -100 -52 -15 -13 -11 -1 -6 -2 -0 -0 -11 -12 -53 -60 -6 -40 -67 -55 -63 -62
-5 -7 -10 -6 -11 -34 -7 -30 -53 0 -5 -25 -2 -28 -101 -132 -114 -122 -146 -118 -122 -94 -86 -80 -117 -136 -127 -80 -8 -29 -52 -2 -1 0 -5 -0 -1 0 0 -0 -17 -21 -61 -59
-9 -6 0 -31 -4 -3 -16 -22 -14 -5 -88 -193 -2 -23 -55 -26 -2 -18 -68 -70 -86 -85 -89 -81 -62 -61 -32 -21 -67 -114 -109 -128 -156 -93 -22 -15 -21 -59 -87 0 0 0 0 0
-6 -24 0 -18 -2 -56 0 -43 -43 -11 -14 0 -5 -1 -2 -3 -19 -76 -68 -89 -97 -119 -134 -133 -181 -201 -123 -89 -146 -232 -308 -342 -199 -16 -189 -145 -99 -114 -48 -120 -82 0 0 0
-13 -8 -12 -7 -11 -4 -13 -30 -6 -16 -22 -66 -2 -1 -1 -31 -102 -109 -143 -150 -157 -163 -155 -154 -287 -328 -349 -295 -213 -317 0 0 0 0 0 0 0 0 0 0 0 0 0 0
0 -7 -52 -13 -7 -34 -18 -16 -26 -13 -2 -1 -2 -1 -6 -16 -54 -77 -130 -157 -211 -215 -183 -176 -209 -241 -273 -283 -185 -0 0 0 0 0 0 0 0 0 0 0 0 0 0 0
0 0 0 0 0 -19 -25 -32 -39 -27 -9 -4 -2 -2 -1 -7 -49 -51 -65 -95 -141 -194 -192 -122 -159 -206 -282 -345 -0 -0 -0 -0 -0 0 0 -0 -0 0 0 -0 0 -0 -0 -0
-15 -38 0 0 -38 -81 -54 -97 -111 -119 -104 -71 -2 -1 -2 -2 -1 -14 -18 -54 -62 -118 -157 -135 -98 -129 -223 -261 -31 0 -0 -0 0 0 0 0 -0 0 0 0 0 0 0 0
0 0 0 -1 -59 -89 0 0 -78 -215 -15 -163 -44 -1 -1 -1 -2 -4 -27 -59 -64 -56 -69 -83 -103 -112 -170 -195 -147 -0 -0 0 0 0 0 0 0 0 0 0 0 0 0 0
Wind_Speed
5 11 9 16 24 16 17 13 12 12 11 11 15 14 14 20 15 5 28 27 23 19 19 24 26 18 17 15 16 16 23 16 23 23 26 25 22 14 13 15 16 15 16 13
6 15 20 21 16 21 24 17 13 16 12 15 13 14 9 18 19 12 34 31 25 17 17 20 28 24 20 16 16 28 22 15 28 26 25 12 17 18 14 8 15 13 17 15
5 9 13 14 17 23 23 20 20 17 13 18 19 17 13 18 18 25 43 35 24 20 21 19 26 25 18 16 18 24 29 23 28 22 14 15 15 16 17 9 17 12 18 16
5 9 15 19 22 20 26 18 22 20 21 23 15 24 14 5 3 7 24 40 14 35 26 16 22 24 25 7 8 15 30 28 27 23 16 23 24 20 15 17 9 9 18 19
3 6 0 11 15 13 21 22 23 18 25 22 17 25 18 2 10 9 17 32 32 37 21 34 21 16 17 9 11 4 29 29 25 28 23 28 25 20 6 7 8 17 11 20
17 11 5 10 13 17 21 22 25 27 28 32 19 24 20 18 20 9 14 20 39 31 33 12 23 6 8 10 9 7 1 27 25 23 25 27 23 23 14 18 8 19 16 12
3 2 5 14 14 10 16 24 29 27 24 27 22 22 18 14 15 3 12 17 44 39 35 27 13 6 6 4 4 6 4 12 27 25 23 27 26 23 21 9 24 21 14 16
8 4 5 3 7 9 13 24 32 26 23 24 16 24 17 14 9 4 14 17 38 44 19 42 14 6 8 4 5 8 2 2 8 29 29 23 26 24 26 19 25 25 18 16
12 8 9 2 5 13 10 23 29 26 31 27 17 17 8 11 13 7 6 9 20 45 41 21 18 21 7 7 5 9 3 5 18 13 12 11 19 27 25 16 27 17 21 3
18 11 13 6 5 4 23 22 24 21 25 25 23 18 11 14 16 15 4 8 17 44 40 21 20 16 9 18 7 8 6 5 11 21 4 6 21 27 27 25 22 23 20 21
22 21 16 5 6 9 6 13 30 24 20 26 20 22 13 15 16 16 7 8 10 35 42 19 27 21 10 9 9 7 8 9 11 13 24 26 9 26 14 29 22 27 24 23
7 25 11 14 26 31 27 21 25 31 31 26 32 16 13 15 15 17 8 3 8 9 27 29 25 28 24 13 16 10 9 8 11 7 8 2 30 24 19 11 17 10 19 23
19 11 6 19 31 22 13 14 24 17 18 37 29 23 15 16 14 13 11 5 4 4 10 29 29 23 22 21 18 20 14 19 11 9 7 10 5 5 18 18 11 23 20 20
23 27 19 27 27 22 26 33 9 30 19 20 28 10 10 13 13 13 20 13 6 4 5 16 29 26 23 24 21 22 22 26 27 18 8 8 11 14 12 13 16 18 21 22
27 27 14 14 14 15 34 26 18 21 28 29 25 10 11 10 9 14 14 12 13 10 3 7 23 20 19 26 23 28 28 26 28 31 26 16 19 18 18 19 19 17 20 20
26 27 29 10 17 17 11 18 19 23 30 21 27 9 10 10 10 13 13 12 12 11 9 6 13 15 19 22 21 23 27 28 28 33 29 23 24 21 21 20 19 19 23 22
24 31 30 31 22 30 28 23 18 26 26 30 6 15 7 8 12 14 12 9 10 9 8 8 11 12 16 17 14 16 19 25 25 31 23 25 23 22 13 14 18 19 25 27
20 26 31 25 17 30 20 21 16 17 18 23 9 4 6 6 8 10 11 11 9 9 8 9 12 11 13 12 13 11 15 16 18 21 21 21 23 22 17 16 17 19 20 21
18 20 23 27 28 4 18 19 15 18 28 24 8 7 8 6 6 9 10 10 11 12 11 11 11 12 12 11 12 12 11 14 15 17 16 19 20 19 19 17 19 20 20 19
18 17 22 23 22 21 18 20 16 18 14 21 6 5 7 6 10 6 7 8 9 10 12 12 12 13 14 13 12 12 13 14 15 13 13 14 13 14 18 17 19 17 19 19
18 23 23 21 21 19 14 19 21 19 20 16 6 6 5 8 9 6 7 8 10 11 11 12 12 13 13 13 13 13 13 14 14 14 13 14 14 13 14 15 15 15 15 16
20 24 22 22 21 19 12 15 20 15 10 11 12 9 10 8 7 6 8 9 10 11 12 13 12 13 13 13 12 13 14 14 14 13 14 14 14 13 14 14 15 15 15 15
24 23 18 17 15 14 14 14 14 16 14 14 12 12 10 8 8 7 8 9 11 12 13 13 12 12 13 13 13 13 14 14 13 13 13 13 14 15 15 15 14 14 15 15
24 23 25 21 13 16 12 12 12 15 14 13 12 11 9 9 8 8 9 10 10 11 12 12 12 13 13 13 14 13 14 14 13 13 13 14 14 15 15 15 15 16 17 16
15 11 20 22 16 15 19 18 16 15 16 16 14 11 11 9 9 9 9 11 11 12 13 13 14 12 13 13 13 14 13 13 13 13 13 13 14 14 15 16 17 16 17 17
26 26 23 16 8 13 18 6 8 12 14 14 12 11 11 9 9 9 9 9 11 13 12 12 12 12 12 12 12 13 13 12 12 12 13 13 14 14 15 14 15 17 16 17
Wind_Direction
282 279 280 277 265 298 291 308 340 342 342 347 319 325 288 263 270 247 224 167 146 129 123 138 142 122 119 110 114 115 197 232 209 140 170 175 192 231 237 228 218 222 218 235
312 275 274 279 284 278 280 297 310 322 330 321 329 318 358 273 262 188 196 208 157 131 131 131 151 144 134 121 118 160 199 232 189 194 197 250 220 211 240 278 232 243 223 230
308 310 287 289 281 276 277 285 299 301 320 311 309 313 319 274 268 260 216 213 187 155 147 134 149 145 135 129 133 144 189 215 203 225 249 245 242 238 229 284 220 253 225 242
136 332 298 279 274 278 274 278 289 299 297 293 310 290 308 333 126 265 236 207 249 186 160 136 143 149 150 114 122 131 189 202 212 223 248 214 205 223 238 237 284 314 239 235
68 357 121 293 281 289 280 286 284 291 283 290 298 291 302 332 296 235 240 186 227 213 161 185 150 137 138 118 120 117 195 207 224 214 228 195 215 237 324 327 320 250 295 228
237 333 333 303 292 288 282 287 280 277 276 270 288 284 295 290 292 296 224 220 194 168 192 221 172 240 138 133 122 116 221 222 227 236 230 219 234 230 226 243 345 221 143 102
57 20 334 296 300 294 283 276 267 268 269 271 288 287 299 308 326 26 194 216 197 215 222 168 148 209 149 163 154 126 119 257 226 233 241 228 228 239 244 296 233 230 280 171
4 356 155 316 284 298 280 270 261 268 273 273 297 280 293 331 340 72 135 235 224 209 240 205 230 195 239 194 154 256 154 135 269 216 222 243 232 236 226 219 234 233 162 288
357 357 350 243 307 173 297 268 261 275 267 269 272 312 348 340 340 332 184 184 229 206 215 233 221 234 227 234 240 257 233 263 252 263 266 271 258 230 240 280 214 199 263 38
333 344 327 310 311 267 272 281 262 263 266 263 271 273 306 309 313 317 306 164 230 211 218 232 240 239 234 247 247 255 255 262 267 249 280 224 253 236 241 244 259 256 272 264
284 298 326 324 294 294 300 295 247 268 267 265 268 271 329 315 307 295 351 137 165 175 205 235 239 240 229 233 241 249 256 264 269 266 244 240 156 241 278 227 262 243 259 268
0 281 320 296 275 222 271 284 270 258 260 270 260 292 310 317 304 289 326 296 158 224 239 237 254 246 244 238 249 250 256 263 272 278 279 163 221 256 267 293 285 305 285 275
296 323 338 298 224 202 175 172 267 300 276 239 277 271 311 310 297 286 279 239 67 277 215 240 247 255 250 252 248 255 258 261 272 278 284 282 287 302 271 282 300 275 285 288
273 241 304 285 266 294 272 232 297 248 259 263 261 296 315 301 289 285 246 267 296 27 321 249 245 250 252 254 257 255 257 257 257 271 274 281 284 284 296 300 295 291 285 284
250 277 310 319 316 266 226 213 271 256 260 254 216 310 274 293 303 277 285 278 283 288 320 268 244 252 252 251 259 259 257 262 259 258 266 275 279 283 284 286 290 296 292 294
276 263 246 316 177 225 353 273 272 272 271 260 259 269 280 274 288 284 288 296 294 308 294 290 266 261 265 272 267 268 262 263 268 259 261 276 276 281 284 287 289 296 295 295
290 265 269 260 288 276 269 273 282 264 269 270 226 244 253 266 247 256 264 274 310 326 300 292 259 253 252 268 287 282 267 264 269 261 281 276 287 282 293 300 296 295 294 294
296 274 261 273 292 264 278 275 292 275 214 268 10 20 252 294 294 301 292 265 293 335 315 290 287 293 292 321 301 309 277 283 286 282 282 283 282 287 292 301 303 305 305 306
293 277 270 265 268 31 285 281 299 293 264 269 332 3 34 29 6 328 359 351 351 352 355 349 360 351 339 334 343 357 345 327 320 299 295 288 290 294 298 303 304 305 311 314
294 282 271 273 280 277 283 273 306 300 298 190 331 350 52 63 289 2 17 1 352 350 0 354 4 12 10 14 0 342 335 334 328 340 341 333 333 332 310 313 313 322 319 319
263 254 246 278 268 290 281 240 260 281 281 300 307 304 348 338 347 36 18 355 340 338 346 350 348 353 350 360 8 9 -0 351 344 334 343 338 336 338 342 338 337 340 338 336
261 243 261 253 279 281 344 300 266 304 6 45 4 351 336 334 359 341 334 330 330 326 329 333 340 338 340 344 354 358 357 354 354 348 348 346 348 347 346 346 351 343 349 356
248 256 280 289 300 300 312 321 313 307 333 350 352 333 353 360 357 344 337 336 329 326 326 331 338 340 338 335 337 342 342 347 353 354 347 346 348 347 349 353 349 350 353 347
208 252 251 280 306 299 322 329 329 319 331 343 354 355 359 355 0 352 337 332 327 322 320 322 325 327 328 332 337 343 341 344 344 345 345 343 345 346 349 349 349 345 342 345
287 300 255 257 285 282 255 255 279 298 300 305 317 336 343 10 13 11 348 331 323 313 311 311 312 318 320 327 333 337 342 347 346 345 339 338 338 339 346 345 337 341 340 336
219 225 233 274 257 217 280 64 348 318 320 319 325 340 353 18 21 15 10 354 325 306 307 308 309 311 315 321 329 332 335 340 341 340 338 340 342 340 334 339 344 344 343 342